Lapse_Rate
5.1 5.0 5.1 5.1 5.2 5.3 5.2 5.1 5.1 5.5 5.7 5.9 6.0 6.3 6.4 6.5 6.6 6.7 6.5 6.3 6.3 6.3 6.4 6.3 6.3 6.3 6.3 6.2 5.8 5.6 5.6 5.3 5.3 5.3 5.3 5.5 5.5 5.6 5.6 5.4 5.8 5.5 5.7 5.8 6.1
4.8 4.9 5.0 5.2 5.2 5.3 5.6 5.7 5.6 5.5 5.6 5.8 5.9 6.1 6.4 6.5 6.6 6.6 6.6 6.5 6.4 6.4 6.5 6.6 6.4 6.3 6.2 6.2 6.2 5.9 6.0 5.4 5.2 5.3 5.2 5.5 5.7 5.3 5.0 5.8 6.2 5.9 6.4 5.8 6.1
4.8 4.6 4.7 4.9 4.9 5.0 5.3 5.6 6.0 6.2 5.8 5.8 5.8 5.9 6.2 6.4 6.5 6.5 6.5 6.5 6.5 6.3 6.1 6.1 6.1 6.1 6.2 6.2 5.9 5.7 5.8 5.4 5.7 5.8 5.5 5.4 5.3 5.5 5.3 5.6 5.9 6.1 6.7 6.2 6.3
4.5 4.6 4.7 4.7 4.9 5.1 5.3 5.5 5.8 6.2 6.5 6.2 6.0 5.8 6.0 6.2 6.4 6.5 6.5 6.6 6.5 6.4 6.3 6.3 6.4 6.3 6.2 6.2 6.1 5.8 5.7 5.5 5.6 6.0 5.8 5.8 5.4 5.0 5.6 5.6 5.6 6.3 5.9 6.4 6.5
4.6 4.4 4.6 4.8 4.9 5.1 5.3 5.7 5.9 5.9 6.3 6.6 6.4 6.1 5.8 6.1 6.2 6.4 6.6 6.6 6.5 6.4 6.4 6.4 6.4 6.6 6.4 6.4 6.1 5.8 5.8 5.7 6.1 6.5 6.3 6.0 5.6 5.2 5.1 5.7 5.6 5.8 6.0 6.0 6.0
4.8 4.6 4.7 4.9 5.0 5.1 5.4 5.7 5.9 6.3 6.3 6.3 6.8 6.4 6.0 5.9 6.1 6.2 6.5 6.4 6.2 6.2 6.3 6.1 6.1 6.1 6.0 6.3 6.1 5.9 6.0 6.2 6.4 6.4 6.5 6.2 5.9 5.6 5.9 5.6 5.5 5.6 5.6 6.1 5.8
5.0 4.9 5.0 5.1 5.1 5.2 5.4 5.6 5.8 6.0 6.5 6.5 6.4 6.9 6.4 6.0 6.0 6.1 6.1 6.2 6.1 5.8 6.0 6.1 5.9 5.8 6.2 6.0 5.8 5.7 6.1 6.6 6.7 6.6 6.4 6.0 6.0 6.1 5.7 5.8 5.4 5.6 5.4 5.8 5.9
5.2 5.1 5.3 5.2 5.2 5.2 5.4 5.6 5.7 5.9 6.2 6.7 6.6 6.5 6.8 6.3 6.0 5.9 6.0 6.0 6.2 5.8 5.6 5.6 5.7 5.7 5.9 5.8 5.7 5.9 6.2 6.5 6.7 6.6 6.4 6.1 6.2 6.1 6.0 5.9 6.0 5.7 5.6 5.6 6.1
5.4 5.5 5.5 5.4 5.2 5.2 5.4 5.5 5.6 5.9 6.0 6.5 6.9 6.5 6.6 6.3 5.9 5.8 5.9 6.1 6.1 6.0 5.9 5.8 5.5 5.6 5.5 5.5 5.6 6.0 6.6 6.6 6.5 6.5 6.6 6.4 6.5 6.4 5.5 5.7 6.2 5.9 5.7 5.6 5.7
5.6 5.7 5.8 5.6 5.3 5.3 5.4 5.5 5.6 5.9 6.1 6.3 6.8 6.6 6.4 6.2 6.0 5.9 5.8 6.1 6.2 6.1 6.0 5.7 5.7 5.7 5.4 5.4 6.1 6.1 6.5 6.7 6.6 6.7 6.8 6.3 6.2 6.4 5.8 5.8 6.5 5.9 5.6 5.7 5.4
5.9 5.9 5.9 5.7 5.8 5.8 5.5 5.6 5.9 6.3 6.4 6.5 7.1 6.9 6.4 6.2 6.1 6.1 5.7 5.9 6.0 6.0 6.0 5.8 6.0 5.9 5.3 5.5 5.9 6.3 6.6 6.5 6.6 6.7 6.9 7.0 6.7 6.3 6.2 6.8 7.0 6.9 5.8 5.5 5.5
6.3 6.2 6.3 6.2 6.1 6.1 6.1 5.9 6.2 6.4 6.6 6.8 7.0 7.0 6.7 6.5 6.1 5.7 5.6 5.6 5.8 5.9 5.9 5.9 5.8 6.4 5.8 5.6 5.9 6.2 6.6 6.5 6.7 6.9 7.2 7.4 7.3 6.7 6.2 6.0 5.8 6.4 6.2 5.5 5.3
6.5 6.4 6.4 6.4 6.5 6.6 6.5 6.5 6.7 6.7 6.9 7.0 7.0 6.9 6.9 6.7 6.5 6.1 5.8 5.7 5.9 5.8 5.8 5.9 6.4 6.0 5.7 5.7 5.9 6.2 6.4 6.6 6.5 6.7 7.2 7.4 7.6 7.7 7.1 6.3 6.1 6.0 6.4 6.1 5.6
6.8 6.7 6.6 6.5 6.5 6.3 6.4 6.4 6.8 7.2 7.2 7.4 7.2 7.2 7.2 7.0 6.7 6.4 6.1 5.9 5.6 5.7 5.7 5.9 6.1 6.1 5.7 5.9 6.1 6.4 6.3 6.6 6.5 6.6 7.2 7.6 8.0 7.2 7.2 6.7 6.5 6.5 6.5 6.7 6.2
6.9 6.9 6.8 6.8 6.8 6.6 6.5 6.5 6.9 7.3 8.0 7.4 7.5 7.3 7.3 7.3 7.1 6.6 6.4 6.2 6.0 5.9 5.8 5.9 6.1 5.8 5.8 6.1 6.2 6.4 6.6 6.8 6.5 6.5 6.7 7.3 7.8 6.0 6.5 6.2 6.5 6.3 6.3 6.9 6.8
6.9 7.1 7.0 7.0 7.0 6.8 6.7 6.8 7.3 7.4 7.7 7.4 7.4 7.5 7.6 7.5 7.2 6.9 6.7 6.6 6.3 6.0 6.1 6.2 6.1 6.1 6.2 6.5 6.6 6.6 6.7 6.8 6.8 6.6 7.3 7.3 7.5 6.1 5.9 6.5 6.9 6.8 6.4 6.2 7.1
6.9 7.1 6.9 7.0 6.9 6.9 7.0 7.4 7.6 7.4 7.1 7.3 7.6 7.7 7.8 7.7 7.4 7.0 6.9 6.9 6.7 6.4 6.4 6.3 6.3 6.4 6.5 6.6 6.6 6.5 6.7 7.2 7.4 7.3 7.8 7.2 7.0 5.6 6.0 6.7 7.2 7.4 7.4 6.9 6.5
6.8 7.1 7.2 7.2 7.2 7.3 7.5 7.9 7.7 7.3 7.1 7.5 7.8 7.8 7.8 7.7 7.7 7.4 7.0 6.9 7.0 7.0 6.7 6.8 6.4 6.3 6.6 6.7 6.7 6.6 6.8 7.6 7.4 7.4 7.7 6.9 6.7 5.4 6.3 6.5 7.2 7.6 7.7 7.4 7.3
7.0 7.4 7.3 7.4 7.6 7.7 8.0 8.1 7.1 7.5 7.6 7.7 7.9 8.1 8.0 7.9 7.8 7.4 7.3 6.7 6.7 7.2 7.0 6.8 6.0 6.1 6.4 6.9 7.0 7.0 6.8 7.1 6.8 6.7 8.1 6.8 6.0 6.3 6.3 6.7 7.2 7.7 7.7 7.6 7.6
7.1 7.4 7.5 7.5 7.6 7.9 8.2 7.7 7.4 7.6 7.8 8.0 8.0 8.1 8.0 8.0 7.9 7.8 7.3 7.0 6.9 7.1 7.2 6.9 6.4 6.2 6.4 6.9 7.0 7.0 7.3 7.3 7.1 7.4 8.1 6.2 5.8 5.7 6.6 7.2 7.5 7.7 7.7 7.9 8.1
7.1 7.5 7.6 7.6 7.6 7.9 8.0 7.3 7.4 7.6 7.8 8.0 8.0 8.2 8.3 8.2 8.0 7.9 7.9 7.7 7.4 7.4 7.4 7.3 7.1 6.7 6.8 6.5 6.7 6.7 6.9 7.3 7.3 7.2 8.1 7.3 6.0 5.1 5.7 6.4 7.1 7.5 7.9 7.9 8.1
7.3 7.3 7.6 7.7 7.5 7.7 7.4 7.2 7.3 7.5 7.8 7.9 8.1 8.2 8.3 8.2 8.0 8.0 7.8 8.2 8.2 8.2 7.8 7.8 7.4 6.7 6.3 6.4 6.7 6.9 7.1 7.1 7.7 6.6 6.7 6.9 5.6 5.6 5.5 6.0 6.5 6.9 7.4 7.7 7.8
7.4 7.6 7.8 7.6 7.5 7.4 7.2 7.0 7.0 7.0 7.1 7.6 7.8 7.9 7.8 7.8 7.7 7.7 7.8 8.0 8.3 8.3 8.4 8.1 7.5 6.6 6.5 6.5 6.6 6.4 6.6 6.6 6.8 7.1 6.5 7.8 5.6 5.6 5.6 5.7 6.2 6.6 6.9 7.2 7.3
7.5 7.3 7.4 7.5 7.4 7.2 7.0 7.0 6.9 6.5 6.5 6.8 7.0 7.3 7.5 7.5 7.7 7.5 7.5 7.6 8.1 8.3 8.2 8.0 8.0 7.6 7.8 7.0 6.7 6.5 6.4 6.5 6.6 6.7 6.0 5.9 5.8 5.8 5.9 6.0 6.2 6.5 6.7 7.1 7.1
7.3 7.2 7.2 7.2 7.4 7.3 7.1 7.1 6.9 6.7 6.5 6.4 6.4 6.7 6.9 7.0 7.1 7.1 7.1 7.0 7.2 7.6 8.0 7.6 7.3 7.1 7.1 6.8 6.6 6.7 6.5 6.4 6.3 6.2 6.2 6.0 5.5 5.9 6.1 6.4 6.4 6.4 6.3 6.5 6.6
7.3 6.9 7.0 7.2 7.4 7.3 7.3 7.1 6.9 6.7 6.6 6.5 6.4 6.4 6.4 6.4 6.5 6.3 6.4 6.4 6.6 6.8 7.0 7.1 6.6 6.5 6.3 6.4 6.4 6.5 6.8 6.6 6.3 6.1 5.9 6.1 6.0 6.2 6.2 6.3 6.3 6.3 6.1 5.9 6.2
7.1 6.9 6.9 7.0 7.1 7.3 7.1 7.1 7.0 6.9 6.4 6.3 6.4 6.3 6.1 6.1 6.0 6.0 6.1 6.0 6.2 6.2 6.3 6.5 6.5 6.3 5.8 6.2 6.2 6.3 6.4 6.4 6.4 6.3 6.0 5.7 5.8 5.9 6.0 5.9 6.0 5.8 5.8 5.8 5.5
Wind_Speed
17 17 17 17 17 17 17 16 15 13 14 14 11 9 7 5 5 2 6 6 7 16 14 12 5 10 5 4 2 3 2 4 3 2 5 1 4 5 7 5 3 4 7 17 23
18 18 18 18 18 17 17 16 15 14 13 13 11 9 5 2 2 9 8 9 12 18 16 17 12 12 4 4 2 2 1 3 3 6 8 8 7 9 0 2 8 11 17 23 22
18 18 18 19 19 18 17 17 16 14 13 11 9 7 2 2 3 4 9 14 14 18 13 10 13 8 5 3 3 1 2 1 4 9 13 10 8 7 5 5 7 19 23 24 23
19 18 19 20 20 19 18 17 16 16 12 11 7 4 2 2 2 3 13 16 17 14 15 13 11 10 6 6 4 3 5 6 3 7 6 9 12 8 6 4 8 20 22 23 23
19 19 20 20 20 19 18 17 16 15 12 8 6 2 1 2 5 3 17 18 13 12 15 11 16 7 8 6 4 8 5 5 6 6 4 12 9 6 7 7 14 20 21 21 20
19 21 21 21 21 21 20 18 17 15 11 6 4 3 2 2 3 11 15 14 10 10 11 14 11 5 7 4 5 3 7 10 6 7 8 9 6 5 8 11 13 20 21 20 20
20 21 21 21 21 22 22 20 18 15 12 6 3 3 2 1 3 13 12 9 7 4 8 3 8 4 5 4 1 4 4 3 6 9 5 14 7 3 15 15 17 19 19 18 18
23 23 22 22 22 22 21 22 20 13 9 5 7 1 3 2 8 10 10 6 6 5 3 2 3 3 1 3 2 3 2 2 4 6 8 6 8 9 16 17 18 19 18 18 18
24 22 22 22 22 21 21 21 10 7 9 10 5 2 1 7 5 9 5 11 9 3 4 4 2 2 2 2 4 1 5 5 4 3 6 3 7 13 15 18 19 19 18 18 17
24 23 22 21 20 19 18 17 5 13 6 4 1 2 3 4 6 10 1 15 5 9 6 4 3 5 3 5 8 8 6 4 5 6 4 5 5 10 11 13 18 19 17 18 18
24 24 22 21 20 15 9 2 2 3 3 5 3 1 2 2 8 10 9 8 12 11 6 6 7 13 12 7 3 5 6 7 3 3 2 5 6 11 12 7 14 16 18 18 19
23 23 21 21 19 10 5 0 3 3 4 6 7 5 5 3 6 11 11 5 11 12 10 7 13 9 8 5 4 4 4 4 3 4 2 4 5 8 13 11 12 15 18 19 19
24 21 20 19 18 4 1 1 3 4 2 2 4 4 2 7 7 12 19 8 13 10 11 12 7 11 9 7 8 4 5 3 3 1 4 4 5 7 8 10 7 14 17 17 19
23 21 19 20 3 1 2 2 7 6 2 2 3 2 5 4 4 6 16 8 5 12 11 6 6 15 10 9 8 9 7 4 2 1 2 2 3 3 7 12 11 11 14 17 20
22 19 16 7 3 1 3 10 2 3 2 5 3 2 3 3 12 4 2 3 11 9 5 5 12 15 11 10 8 2 5 5 2 2 2 3 3 6 3 3 10 14 13 13 18
22 18 10 2 2 4 8 6 3 3 4 2 3 2 5 2 2 5 2 5 3 6 3 4 3 4 6 8 11 10 7 5 4 1 5 5 3 8 5 8 8 9 16 19 17
22 18 4 1 3 6 6 1 2 3 5 7 4 4 8 6 6 4 5 6 2 9 10 4 3 2 4 8 8 7 8 5 6 5 5 4 5 5 8 11 12 14 12 16 19
24 6 6 3 7 5 1 1 6 3 4 4 4 5 5 5 7 7 4 4 10 3 3 7 6 5 9 2 5 13 12 5 9 9 7 2 8 6 9 10 13 15 15 6 11
17 1 1 7 0 1 2 6 3 4 6 8 3 4 4 4 5 5 7 5 6 8 1 4 4 1 9 7 3 6 8 2 5 1 9 4 4 7 14 16 18 20 19 15 8
1 1 5 11 1 1 5 5 3 7 6 3 3 4 4 4 4 4 5 5 6 9 3 2 6 7 6 2 10 3 4 6 3 10 11 4 3 3 15 18 19 21 20 18 11
1 1 6 11 0 7 4 4 3 8 7 6 4 3 6 4 6 4 4 3 8 7 6 1 1 3 1 7 7 2 3 3 3 3 6 7 4 5 8 11 13 15 17 19 19
2 2 7 6 5 2 3 3 5 10 8 7 5 8 5 6 6 4 4 5 13 4 4 4 4 5 4 2 3 5 3 2 7 6 2 1 5 5 6 9 10 14 17 18 20
2 2 4 4 4 4 3 4 8 11 9 7 7 8 6 4 5 4 3 5 12 6 3 2 3 5 3 3 2 4 5 3 2 0 4 6 5 5 7 10 12 14 15 15 19
2 3 4 5 3 4 3 4 3 6 8 7 6 3 3 6 8 4 3 4 7 8 11 2 4 3 1 4 2 2 4 5 3 3 7 3 11 5 8 11 12 14 14 16 17
4 3 1 4 6 7 3 3 4 4 5 10 6 10 4 3 3 4 3 3 7 11 5 4 4 6 8 6 2 1 2 4 5 4 2 9 8 6 7 8 10 10 12 15 17
3 2 2 3 2 6 5 4 7 4 6 6 7 9 8 5 4 3 2 4 3 7 4 3 4 5 3 3 3 3 5 5 2 1 3 4 5 4 5 6 9 11 13 15 15
1 1 1 3 2 2 3 2 3 2 6 7 4 6 9 6 4 5 6 4 3 3 3 2 5 2 4 2 2 5 4 5 1 2 1 4 5 4 3 6 8 9 11 12 13
Wind_Direction
348 346 344 342 340 339 339 339 337 338 333 329 330 327 315 306 290 200 235 221 177 165 154 141 126 139 153 166 216 253 229 81 76 50 121 47 95 47 329 151 82 189 141 141 150
346 343 341 338 336 336 334 334 334 335 333 329 329 326 313 290 256 245 239 198 192 158 152 157 149 152 155 177 200 270 350 55 91 128 123 118 121 128 323 203 72 97 123 140 151
342 340 337 333 332 332 331 329 329 331 331 328 326 331 300 258 268 238 186 188 175 172 150 146 140 147 150 174 189 228 213 201 120 112 134 135 134 164 198 188 162 149 143 149 157
340 336 333 332 330 328 327 325 325 325 328 324 321 327 285 234 168 11 155 162 158 160 144 140 155 157 169 179 207 256 251 270 173 155 141 153 140 167 147 15 153 148 151 152 160
338 332 330 330 326 325 322 321 319 319 319 321 310 279 247 246 263 43 145 144 138 157 162 154 162 151 174 183 181 229 265 257 244 194 139 140 147 134 114 99 138 145 155 159 163
337 331 330 329 326 323 320 318 316 312 308 302 295 171 210 245 4 140 141 138 143 151 147 158 175 158 158 176 209 236 257 296 299 204 150 135 132 150 120 129 152 158 162 167 172
332 330 331 328 326 325 320 315 310 301 290 277 194 234 200 331 6 142 139 149 150 137 147 155 175 171 153 170 243 274 278 129 69 129 130 126 126 252 145 153 163 168 169 174 180
329 328 329 328 326 323 319 314 303 284 258 214 162 149 243 26 138 145 140 109 125 77 146 126 142 140 221 317 191 231 215 161 127 145 147 314 122 144 160 159 172 173 175 178 183
324 325 328 329 326 324 321 314 328 137 168 152 143 127 116 124 160 175 174 151 151 127 53 148 150 178 194 193 159 173 156 128 136 165 163 287 109 154 170 172 176 179 183 183 184
322 324 329 330 325 323 315 304 10 102 123 166 219 187 208 185 147 154 120 142 134 146 117 132 156 193 177 193 175 161 142 104 124 157 137 163 99 138 172 187 184 182 184 191 190
322 325 331 329 324 320 307 184 175 131 206 246 143 130 291 43 131 169 163 128 127 153 158 164 186 196 188 198 97 120 128 123 91 93 204 198 175 174 162 157 180 179 189 188 194
325 329 333 329 326 326 168 104 75 -0 300 234 246 273 258 251 122 139 176 145 158 156 142 157 209 189 187 202 191 151 149 124 99 46 200 140 116 196 192 182 181 185 192 199 192
330 334 332 329 326 173 262 154 348 186 235 287 207 211 177 177 141 165 178 156 164 161 172 180 191 169 181 178 185 170 196 167 96 61 92 144 121 147 202 199 179 195 199 201 204
335 334 334 328 245 355 227 341 322 191 304 110 200 193 145 193 98 152 185 156 167 178 175 197 159 175 183 190 199 204 202 191 155 222 139 313 138 96 174 208 213 199 202 205 204
336 332 330 316 309 215 16 337 147 215 137 336 135 94 120 184 132 136 193 178 163 150 184 151 164 182 191 198 188 170 169 195 158 148 198 214 219 28 151 195 253 251 228 219 214
332 328 328 169 234 280 332 335 209 244 71 15 1 117 137 69 71 113 116 50 81 140 211 95 93 175 201 183 179 142 109 81 83 181 205 179 277 51 38 351 335 332 256 225 215
326 317 212 238 350 339 322 192 183 40 335 1 359 21 89 31 57 51 50 45 98 162 183 118 71 61 22 157 162 168 176 145 172 195 188 93 116 65 26 20 13 357 330 238 217
323 301 202 237 298 322 207 145 65 5 7 348 349 56 81 25 40 33 76 74 37 4 138 171 154 10 1 19 182 189 199 196 178 187 162 119 145 104 35 18 12 18 23 5 231
324 218 29 349 233 221 96 56 29 340 331 329 319 95 77 60 117 88 55 38 21 358 220 148 95 28 48 31 314 149 199 54 107 38 184 124 113 196 14 17 17 17 12 5 337
351 27 21 341 88 85 72 89 64 13 325 303 63 7 108 30 99 84 37 18 352 15 290 125 124 25 12 317 48 8 104 175 211 168 181 116 126 46 0 2 6 9 9 2 353
33 51 5 358 308 52 72 62 17 4 14 28 42 82 70 62 55 69 22 71 358 340 31 38 2 51 57 36 15 10 132 63 101 340 177 164 133 23 17 13 11 6 13 14 19
67 46 355 335 49 36 63 29 2 355 15 50 68 54 57 44 61 86 96 6 343 319 34 20 80 77 99 331 339 34 61 350 224 177 64 325 121 33 38 41 22 21 19 24 30
66 358 359 327 84 73 83 76 45 24 26 23 43 46 54 65 106 78 92 4 7 42 26 14 48 123 159 209 155 55 34 58 96 35 168 196 139 71 60 52 40 33 29 33 31
80 41 13 46 29 78 96 44 91 45 50 54 33 52 91 55 42 112 104 32 10 28 37 65 64 340 148 74 56 126 47 39 356 200 146 66 137 93 48 48 39 38 39 38 39
29 69 12 20 38 66 77 44 53 38 45 31 46 37 45 97 77 79 49 27 56 8 42 46 92 88 76 76 66 19 2 24 51 83 325 135 127 90 55 42 36 40 42 39 36
89 134 79 72 347 51 28 43 62 58 21 39 84 46 60 85 47 116 91 33 28 356 46 19 117 128 76 39 15 289 283 300 311 123 128 130 124 83 77 69 48 35 36 33 27
82 94 109 11 47 61 31 69 78 104 65 65 81 103 73 65 68 66 70 77 57 17 42 47 138 147 150 350 318 255 253 219 131 87 153 201 89 117 85 48 37 33 32 25 13